OPS 4682 DEB, 38379

Orbit data source: Space-Track

OPS 4682 DEB, 38379 is space debris in LEO originally from a launch on Sat, 03 Apr 1965 UTC launched from the Air Force Western Test Range (AFWTR). Debris objects in space refer to the collection of defunct objects orbiting the Earth. Examples of debris include non-operational satellites, rocket bodies, and fragments generated from explosions, collisions, or faulty payload assembly.

Loading next visibility...
Identifier
38379, 1965-027CG
Orbit
LEO
Country
Flag of USUS
Related business
Manufacturer
Unknown
Mission
Spacecraft
Bus & Motor
Unknown
Mass
Unknown
Launch date (UTC)
1965-04-03 (61 years ago)
Launch vehicle
Unknown
Launch site
Air Force Western Test Range (AFWTR)
Object type
Payload
Rocket body
Debris
Shape & HBR
Unknown shape, 0.1 m
Radar Cross Section
Small (<0.1 m²)

Expand to show TLE details & history
Last TLE update: 1 day ago

TLE from 1 day ago
0 OPS 4682 DEB
1 38379U 65027CG  26067.26917473  .00001094  00000-0  35816-2 0  9999
2 38379  90.2412   1.8377 0027236 139.3064 221.0100 13.00471234619346
Epoch: 2026-03-08T06:27Z
TLE epoch observation values (Epoch: 2026-03-08T06:27:36.696Z)
Latitude
-0.00003°
Longitude
98.9559°
Altitude
1,278.851 km
Speed
7.209 km/s
True Right ascension
00h 07m 21s
True Declination
0° 00' 00"
Sunlit
Object was in daylight at epoch
Visualization orbit readout
Latitude
Unknown
Longitude
Unknown
Altitude
Unknown
Speed
Unknown
Apparent Right ascension
Unknown
Apparent Declination
Unknown
Sunlit
N/A
Visualization observer readout
Local Sidereal Time
18:45:15
Azimuth
Unknown
Elevation
Unknown
Doppler factor
Unknown
Orbital elements
Apogee altitude
1,278.163 km
Perigee altitude
1,236.571 km
Semi-major axis
7,635.504 km
Eccentricity
0.00272
Inclination
90.2412°
RAAN
1.8377°
Arg. of periapsis
139.3064°
True anomaly
220.80573°
Mean anomaly
221.01°
Eccentric anomaly
220.90781°
Mean motion
3.25302 °/min
Orbital period
110.67 mins
BSTAR
0.0035816
Loading maneuver chart data...
Computing Atmospheric mass density...
Loading historical data...
Loading historical data...
Loading historical data...
Loading historical data...
Loading historical data...
Loading historical data...
Loading historical data...

Documentation

Showing up to 5 results
|